Location: Rochester
(43.1610°N, 77.6109°W)
Time: 02:18:46
(UTC-05:00)

N. Korean satellite - Visible Passes

Search period start: 25 January 2021 00:00
Search period end: 04 February 2021 00:00
Orbit: 452 x 502 km, 97.2° (Epoch: 24 January)

Date Brightness Start Highest point End Pass type
(mag) Time Alt. Az. Time Alt. Az. Time Alt. Az.
25 Jan 10.0 04:32:20 10° E 04:32:44 10° E 04:33:07 10° E visible
25 Jan 6.6 06:03:00 10° N 06:06:20 45° WNW 06:09:36 10° SSW visible
26 Jan 6.5 05:36:19 10° NNE 05:39:47 75° ESE 05:43:11 10° S visible
26 Jan 9.8 17:46:16 10° SW 17:48:43 17° W 17:51:09 10° NW visible
27 Jan 8.3 05:10:01 10° NNE 05:13:08 31° E 05:16:12 10° SSE visible
27 Jan 8.1 06:44:07 10° NNW 06:46:11 15° WNW 06:48:13 10° WSW visible
28 Jan 9.6 04:44:18 10° NE 04:46:22 15° E 04:48:24 10° SE visible
28 Jan 7.2 06:16:43 10° N 06:19:47 30° WNW 06:22:48 10° SW visible
29 Jan 6.3 05:49:51 10° N 05:53:16 70° WNW 05:56:39 10° SSW visible
29 Jan 10.2 18:01:02 10° WSW 18:02:22 12° W 18:03:40 10° WNW visible
30 Jan 7.4 05:23:19 10° NNE 05:26:40 48° E 05:29:57 10° S visible
31 Jan 9.0 04:57:14 10° NE 04:59:57 22° E 05:02:38 10° SSE visible
31 Jan 7.7 06:30:32 10° NNW 06:33:11 21° WNW 06:35:48 10° WSW visible
01 Feb 10.0 04:32:37 10° E 04:33:08 10° E 04:33:38 10° E visible
01 Feb 6.7 06:03:25 10° N 06:06:43 44° WNW 06:09:57 10° SSW visible
02 Feb 6.5 05:36:43 10° NNE 05:40:08 77° E 05:43:32 10° S visible
03 Feb 8.2 05:10:22 10° NNE 05:13:28 32° E 05:16:34 10° SSE visible
03 Feb 8.1 06:44:31 10° NNW 06:46:31 15° WNW 06:48:29 10° WSW visible
